Regional Weather Roundup
Issued by NWS

Current Version | Previous Version | Text Only | Print | Product List | Glossary On
Versions: 1 2 3 4 5 6 7 8 9 10 11 12 13 14 15 16 17 18 19 20 21 22 23 24 25 26 27 28 29 30 31 32 33 34 35 36 37 38 39 40 41 42 43 44 45 46 47 48 49 50
629
ASUS46 KPQR 230810
RWROR

OREGON REGIONAL WEATHER ROUNDUP
NATIONAL WEATHER SERVICE PORTLAND OR
1200 AM PST THU NOV 23 2017

NOTE: "FAIR" INDICATES FEW OR NO CLOUDS BELOW 12,000 FEET WITH
NO SIGNIFICANT WEATHER AND/OR OBSTRUCTIONS TO VISIBILITY.

ORZ001>013-230900-
NORTHWEST OREGON


CITY           SKY/WX    TMP DP  RH WIND       PRES   REMARKS
ASTORIA        LGT RAIN  57  55  93 SW16G28   29.91S
NEWPORT        RAIN      57  57 100 S21       30.01
PORTLAND       LGT RAIN  61  59  93 S13       29.95S
VANCOUVER WA   LGT RAIN  62  60  93 VRB6      29.94S
SCAPPOOSE      CLOUDY    59  58  96 SE6       29.93F
HILLSBORO      LGT RAIN  60  58  92 S8        29.94S
AURORA         CLOUDY    61  60  97 S12       29.95F
MCMINNVILLE    LGT RAIN  60  60 100 W8        29.96S FOG
SALEM          CLOUDY    62  58  86 S13G23    29.95F
CORVALLIS      LGT RAIN  59  59 100 S6        29.98F
EUGENE         CLOUDY    60  59  96 S12       30.00S
$$

ORZ021-028-230900-
SOUTHWEST OREGON


CITY           SKY/WX    TMP DP  RH WIND       PRES   REMARKS
NORTH BEND     LGT RAIN  64  62  93 S20G28    30.03S
BROOKINGS      HVY RAIN  57  56  96 E5        30.10F FOG
ROSEBURG       LGT RAIN  59  58  96 CALM      30.04R FOG
SEXTON SUMMIT  CLOUDY    52  49  89 S13G24    30.11F
GRANTS PASS    CLOUDY    57  55  94 CALM      30.10F
MEDFORD        CLOUDY    57  56  96 N8        30.07F
$$

ORZ014>016-041-230900-
COLUMBIA GORGE


CITY           SKY/WX    TMP DP  RH WIND       PRES   REMARKS
TROUTDALE      CLOUDY    55  53  93 NE6       29.96F
HOOD RIVER     HVY RAIN  50  48  93 CALM      29.96F VSB 1
THE DALLES     LGT RAIN  49  47  93 SE3       29.96F FOG
$$

ORZ029>031-041-044-049-050-061>064-502-503-505>511-230900-
EASTERN OREGON


CITY           SKY/WX    TMP DP  RH WIND       PRES   REMARKS
MADRAS         CLOUDY    64  64 100 S14G21    30.01R
REDMOND        CLOUDY    61  45  55 SW13G21   30.04F
BEND           CLOUDY    59  45  58 SW8       30.07S
PRINEVILLE     CLOUDY    57  45  62 E6        30.06F
KLAMATH FALLS  CLOUDY    48  45  89 CALM      30.21R
LAKEVIEW       CLOUDY    50  41  71 S10       30.23F
HERMISTON      CLOUDY    45  45 100 CALM      29.94F FOG
PENDLETON      CLOUDY    52  46  80 SE5       29.94F
JOHN DAY       CLOUDY    62  40  43 SW8       30.11F
MEACHAM        CLOUDY    54  45  71 CALM      30.06F
LA GRANDE      CLOUDY    58  48  69 S16       30.08F
BAKER CITY     CLOUDY    49  45  86 SW5       30.13F
BURNS          CLOUDY    42  41  96 W6        30.17F
ROME             N/A     54  44  69 SE8       30.18F
ONTARIO        FOG       47  47 100 S3        30.17F VSB 1/2
$$




USA.gov is the U.S. government's official web portal to all federal, state and local government web resources and services.